Crane Lake, MN

4:54 AM CDT on October 23, 2017 (GMT -0500)
Crane Lake

Weather History for KCDD - October, 2013

Change the Weather History Date:

Saturday, October 26, 2013

  Actual Average Record
Temperature  
Mean Temperature 32 °F -  
Max Temperature 39 °F 43 °F 62 °F (2000)
Min Temperature 26 °F 30 °F 8 °F (1997)
Degree Days  
Heating Degree Days 32    
Moisture  
Dew Point 35 °F    
Average Humidity 98    
Maximum Humidity 100    
Minimum Humidity 93    
Precipitation  
Precipitation 0.03 in - - ()
Sea Level Pressure  
Sea Level Pressure 29.92 in    
Wind  
Wind Speed 5 mph (NW)    
Max Wind Speed 15 mph    
Max Gust Speed 22 mph    
Visibility 10 miles    
Events Rain    
Averages and records for this station are not official NWS values.
T = Trace of Precipitation, MM = Missing Value Source: NWS Daily Summary

Daily Weather History Graph

Daily Weather History Graph

Search for Another Location

Airport or City:

Trip Planner

Search our weather history database for the weather conditions in past years. The results will help you decide how hot, cold, wet, or windy it might be!

Date:

Astronomy

Oct. 26, 2013 Rise Set
Actual Time 7:46 AM CDT 6:00 PM CDT
Civil Twilight 7:14 AM CDT 6:32 PM CDT
Nautical Twilight 6:37 AM CDT 7:08 PM CDT
Astronomical Twilight 6:01 AM CDT 7:45 PM CDT
Moon No Moon Rise 2:06 PM CDT (10/26)
Length of Visible Light 11h 18m
Length of Day
10h 13m
Waning Gibbous, 53% of the Moon is Illuminated
Oct 26
Waning Gibbous
Oct 26
Last Quarter
Nov 3
New
Nov 9
First Quarter
Nov 17
Full

Hourly Weather History & Observations

Time (CDT) Temp. Windchill Dew Point Humidity Pressure Visibility Wind Dir Wind Speed Gust Speed Precip Events Conditions
12:11 AM 37.4 °F 32.8 °F 35.6 °F 93% 29.70 in 10.0 mi West 5.8 mph - N/A   Overcast
12:31 AM 37.4 °F 34.9 °F 35.6 °F 93% 29.71 in 10.0 mi WNW 3.5 mph - N/A   Overcast
12:51 AM 37.4 °F 34.9 °F 35.6 °F 93% 29.72 in 10.0 mi WNW 3.5 mph - N/A   Overcast
1:12 AM 37.4 °F 33.8 °F 37.4 °F 100% 29.72 in 10.0 mi NW 4.6 mph - N/A   Overcast
1:31 AM 37.4 °F 33.8 °F 37.4 °F 100% 29.73 in 10.0 mi NW 4.6 mph - N/A   Overcast
1:52 AM 37.4 °F 32.1 °F 37.4 °F 100% 29.74 in 10.0 mi NW 6.9 mph 18.4 mph N/A   Overcast
2:12 AM 37.4 °F 29.8 °F 37.4 °F 100% 29.74 in 10.0 mi NW 11.5 mph 17.3 mph N/A   Overcast
2:31 AM 37.4 °F 33.8 °F 37.4 °F 100% 29.75 in 10.0 mi NW 4.6 mph - N/A   Overcast
2:52 AM 37.4 °F 32.1 °F 37.4 °F 100% 29.76 in 10.0 mi NW 6.9 mph - N/A   Overcast
3:11 AM 35.6 °F 26.2 °F 35.6 °F 100% 29.77 in 10.0 mi NW 15.0 mph 21.9 mph N/A   Scattered Clouds
3:31 AM 37.4 °F 32.1 °F 35.6 °F 93% 29.77 in 10.0 mi NW 6.9 mph - N/A   Mostly Cloudy
3:51 AM 37.4 °F 34.9 °F 35.6 °F 93% 29.77 in 10.0 mi WNW 3.5 mph - N/A   Overcast
4:11 AM 37.4 °F 33.8 °F 35.6 °F 93% 29.78 in 10.0 mi West 4.6 mph - N/A   Overcast
4:31 AM 35.6 °F - 33.8 °F 93% 29.79 in 2.0 mi Calm Calm - N/A Rain Rain
4:51 AM 35.6 °F 28.6 °F 33.8 °F 93% 29.80 in 2.5 mi North 9.2 mph - 0.01 in Rain Rain
5:12 AM 33.8 °F 27.7 °F 32.0 °F 93% 29.81 in 7.0 mi NNW 6.9 mph - 0.01 in Rain Light Rain
5:32 AM 33.8 °F 29.6 °F 32.0 °F 93% 29.83 in 5.0 mi NW 4.6 mph - 0.01 in Rain Light Rain
5:51 AM 33.8 °F 30.8 °F 33.8 °F 100% 29.83 in 10.0 mi NW 3.5 mph - 0.01 in   Overcast
6:11 AM 33.8 °F - 33.8 °F 100% 29.84 in 10.0 mi Calm Calm - N/A   Overcast
6:32 AM 33.8 °F 29.6 °F 33.8 °F 100% 29.85 in 10.0 mi WNW 4.6 mph - N/A   Overcast
6:51 AM 35.6 °F 29.9 °F 33.8 °F 93% 29.86 in 10.0 mi NW 6.9 mph - N/A   Overcast
7:11 AM 35.6 °F 31.7 °F 33.8 °F 93% 29.87 in 10.0 mi NW 4.6 mph - N/A   Overcast
7:31 AM 35.6 °F 28.0 °F 33.8 °F 93% 29.88 in 10.0 mi NNW 10.4 mph 21.9 mph N/A   Light Drizzle
7:51 AM 33.8 °F 25.8 °F 33.8 °F 100% 29.90 in 2.5 mi NNW 10.4 mph 19.6 mph 0.01 in Rain Rain
8:12 AM 33.8 °F 26.4 °F 33.8 °F 100% 29.90 in 10.0 mi NNW 9.2 mph - N/A   Overcast
8:31 AM 33.8 °F 28.6 °F 33.8 °F 100% 29.92 in 10.0 mi NNW 5.8 mph - N/A   Overcast
8:51 AM 33.8 °F 27.0 °F 33.8 °F 100% 29.93 in 10.0 mi NNW 8.1 mph - N/A   Overcast
9:11 AM 33.8 °F 26.4 °F 33.8 °F 100% 29.94 in 10.0 mi NNW 9.2 mph - N/A   Mostly Cloudy
9:32 AM 33.8 °F 28.6 °F 33.8 °F 100% 29.95 in 10.0 mi NNW 5.8 mph - N/A   Overcast
9:51 AM 35.6 °F 29.2 °F 33.8 °F 93% 29.96 in 10.0 mi NNW 8.1 mph - N/A   Overcast
10:11 AM 35.6 °F 29.9 °F 33.8 °F 93% 29.97 in 10.0 mi NNW 6.9 mph - N/A   Overcast
10:31 AM 35.6 °F 28.6 °F 35.6 °F 100% 29.98 in 10.0 mi NNW 9.2 mph - N/A   Overcast
10:51 AM 35.6 °F 31.7 °F 35.6 °F 100% 29.98 in 10.0 mi NNW 4.6 mph - N/A   Overcast
11:12 AM 37.4 °F 32.1 °F 37.4 °F 100% 29.99 in 10.0 mi NW 6.9 mph - N/A   Overcast
11:31 AM 39.2 °F 33.0 °F 39.2 °F 100% 30.00 in 10.0 mi NNW 9.2 mph - N/A   Mostly Cloudy
11:51 AM 37.4 °F 32.8 °F 35.6 °F 93% 30.01 in 10.0 mi NNW 5.8 mph - N/A   Overcast
12:11 PM 37.4 °F 32.1 °F 37.4 °F 100% 30.01 in 10.0 mi North 6.9 mph - N/A   Overcast
12:31 PM 37.4 °F 31.4 °F 35.6 °F 93% 30.02 in 10.0 mi NNW 8.1 mph - N/A   Overcast
12:51 PM 37.4 °F 31.4 °F 37.4 °F 100% 30.02 in 10.0 mi NNW 8.1 mph - N/A   Overcast
1:12 PM 39.2 °F 32.5 °F 39.2 °F 100% 30.02 in 10.0 mi NW 10.4 mph - N/A   Overcast
1:31 PM 39.2 °F 32.5 °F 39.2 °F 100% 30.02 in 10.0 mi NNW 10.4 mph 16.1 mph N/A   Mostly Cloudy
1:51 PM 39.2 °F 32.5 °F 37.4 °F 93% 30.02 in 10.0 mi NNW 10.4 mph 17.3 mph N/A   Overcast
2:11 PM 37.4 °F 29.8 °F 37.4 °F 100% 30.02 in 10.0 mi NNW 11.5 mph 17.3 mph N/A   Overcast
2:32 PM 37.4 °F 30.8 °F 37.4 °F 100% 30.03 in 10.0 mi NNW 9.2 mph - N/A   Overcast
2:51 PM 37.4 °F 30.8 °F 37.4 °F 100% 30.02 in 10.0 mi NW 9.2 mph - N/A   Overcast
3:11 PM 37.4 °F 30.8 °F 37.4 °F 100% 30.03 in 10.0 mi NW 9.2 mph - N/A   Overcast
3:31 PM 37.4 °F 32.8 °F 37.4 °F 100% 30.02 in 10.0 mi NNW 5.8 mph - N/A   Overcast
3:51 PM 37.4 °F 33.8 °F 37.4 °F 100% 30.02 in 10.0 mi NW 4.6 mph - N/A   Overcast
4:12 PM 37.4 °F 34.9 °F 37.4 °F 100% 30.03 in 10.0 mi NW 3.5 mph - N/A   Overcast
4:31 PM 37.4 °F 34.9 °F 37.4 °F 100% 30.03 in 10.0 mi NW 3.5 mph - N/A   Overcast
4:51 PM 35.6 °F - 35.6 °F 100% 30.03 in 10.0 mi Calm Calm - N/A   Overcast
5:11 PM 35.6 °F - 35.6 °F 100% 30.02 in 10.0 mi Calm Calm - N/A   Overcast
5:31 PM 35.6 °F - 35.6 °F 100% 30.02 in 10.0 mi Calm Calm - N/A   Overcast
5:51 PM 35.6 °F - 35.6 °F 100% 30.02 in 10.0 mi Calm Calm - N/A   Overcast
6:11 PM 35.6 °F - 35.6 °F 100% 30.02 in 10.0 mi Calm Calm - N/A   Overcast
6:31 PM 35.6 °F - 33.8 °F 93% 30.01 in 10.0 mi Calm Calm - N/A   Overcast
6:51 PM 33.8 °F - 33.8 °F 100% 30.00 in 10.0 mi Calm Calm - N/A   Overcast
7:11 PM 33.8 °F - 33.8 °F 100% 30.00 in 10.0 mi Calm Calm - N/A   Overcast
7:31 PM 33.8 °F - 33.8 °F 100% 30.00 in 10.0 mi Calm Calm - N/A   Overcast
7:51 PM 33.8 °F - 33.8 °F 100% 30.00 in 10.0 mi Calm Calm - N/A   Overcast
8:11 PM 33.8 °F - 33.8 °F 100% 29.99 in 10.0 mi Calm Calm - N/A   Overcast
8:31 PM 33.8 °F - 33.8 °F 100% 29.98 in 10.0 mi Calm Calm - N/A   Overcast
8:51 PM 33.8 °F - 33.8 °F 100% 29.98 in 10.0 mi Calm Calm - N/A   Overcast
9:11 PM 33.8 °F - 33.8 °F 100% 29.98 in 10.0 mi Calm Calm - N/A   Overcast
9:32 PM 33.8 °F - 32.0 °F 93% 29.97 in 10.0 mi Calm Calm - N/A   Mostly Cloudy
9:51 PM 32.0 °F - 30.2 °F 93% 29.97 in 10.0 mi Calm Calm - N/A   Mostly Cloudy
10:11 PM 30.2 °F 26.7 °F 30.2 °F 100% 29.95 in 10.0 mi South 3.5 mph - N/A   Overcast
10:32 PM 28.4 °F - 26.6 °F 93% 29.94 in 10.0 mi Calm Calm - N/A   Scattered Clouds
10:51 PM 26.6 °F - 24.8 °F 93% 29.94 in 10.0 mi Calm Calm - N/A   Mostly Cloudy
11:11 PM 28.4 °F - 26.6 °F 93% 29.94 in 10.0 mi Calm Calm - N/A   Overcast
11:31 PM 28.4 °F - 28.4 °F 100% 29.93 in 10.0 mi Calm Calm - N/A   Overcast
11:52 PM 30.2 °F 26.7 °F 28.4 °F 93% 29.92 in 10.0 mi South 3.5 mph - N/A   Overcast